Simultaneous Nadir Overpasses (SNOs) Predictions

Prediction of SNOs near US between AQUA and NPP Satellite Orbit:

Table of predicted SNOs near US for the next 10.0 days since TLE Epoch: 6/3/2016
Index Date (AQUA) Time (AQUA) AQUA Lat,Lon Date (NPP) Time (NPP) NPP Lat,Lon Distance(km) Time Diff (sec)
1 06/03/2016 19:06:27 49.98, -92.56 06/03/2016 19:02:13 49.67, -94.41 137.23 254
2 06/03/2016 20:45:20 49.98,-117.28 06/03/2016 20:43:41 49.56,-119.74 182.51 99
3 06/06/2016 08:34:59 20.57,-101.79 06/06/2016 08:26:48 20.60,-101.92 13.96 491
4 06/06/2016 10:11:21 29.67,-124.28 06/06/2016 10:05:41 29.79,-124.92 62.90 340
5 06/09/2016 07:18:49 49.93, -76.02 06/09/2016 07:21:11 50.36, -78.19 161.73 142
6 06/09/2016 08:57:42 49.93,-100.74 06/09/2016 09:02:39 50.47,-103.52 206.20 297
7 06/11/2016 18:16:58 49.98, -80.20 06/11/2016 18:11:28 49.71, -81.74 114.93 330
8 06/11/2016 19:55:51 49.98,-104.92 06/11/2016 19:52:56 49.60,-107.07 160.17 175
9 06/11/2016 21:31:00 36.63,-125.00 06/11/2016 21:30:34 36.16,-127.55 234.78 26




NCC Satellite Simultaneous Nadir Overpasses (SNOs) Prediction Service
